• In Italy
  • List of Countries
  • For 7 days
  • Water Temperature
  • Satellite Maps
  • Weather Map
  • Weather Widgets
  • user-avatar
    Login

    Hourly Weather Pune

    Today, 19 November, Sunday

    Time Temperature Precipitation Wind Pressure Humidity
    00:00 +23°C° 0 mm 1 mps 711 mmHg 50%
    01:00 +23°C° 0 mm 1 mps 711 mmHg 50%
    02:00 +23°C° 0 mm 1 mps 711 mmHg 50%
    03:00 +22°C° 0 mm 1 mps 711 mmHg 51%
    04:00 +22°C° 0 mm 1 mps 711 mmHg 52%
    05:00 +22°C° 0 mm 1 mps 711 mmHg 53%
    06:00 +23°C° 0 mm 2 mps 711 mmHg 51%
    07:00 +24°C° 0 mm 2 mps 712 mmHg 49%
    08:00 +25°C° 0 mm 2 mps 713 mmHg 47%
    09:00 +27°C° 0 mm 2 mps 713 mmHg 45%
    10:00 +29°C° 0 mm 3 mps 713 mmHg 42%
    11:00 +30°C° 0 mm 3 mps 713 mmHg 40%
    12:00 +31°C° 0 mm 3 mps 713 mmHg 39%
    13:00 +31°C° 0 mm 2 mps 712 mmHg 37%
    14:00 +32°C° 0 mm 1 mps 711 mmHg 36%
    15:00 +31°C° 0 mm 1 mps 711 mmHg 39%
    16:00 +30°C° 0 mm 1 mps 711 mmHg 43%
    17:00 +29°C° 0 mm 1 mps 711 mmHg 46%
    18:00 +28°C° 0 mm 1 mps 711 mmHg 47%
    19:00 +27°C° 0 mm 1 mps 711 mmHg 47%
    20:00 +26°C° 0 mm 2 mps 712 mmHg 48%
    21:00 +26°C° 0 mm 2 mps 712 mmHg 49%
    22:00 +25°C° 0 mm 2 mps 712 mmHg 49%
    23:00 +25°C° 0 mm 2 mps 712 mmHg 50%

    Tomorrow, 20 November, Monday

    Time Temperature Precipitation Wind Pressure Humidity
    00:00 +25°C° 0 mm 2 mps 712 mmHg 50%
    01:00 +24°C° 0 mm 2 mps 711 mmHg 51%
    02:00 +24°C° 0 mm 2 mps 711 mmHg 52%
    03:00 +24°C° 0 mm 2 mps 711 mmHg 52%
    04:00 +23°C° 0 mm 2 mps 711 mmHg 51%
    05:00 +23°C° 0 mm 2 mps 711 mmHg 51%
    06:00 +24°C° 0 mm 2 mps 712 mmHg 49%
    07:00 +25°C° 0 mm 2 mps 712 mmHg 47%
    08:00 +26°C° 0 mm 3 mps 713 mmHg 45%
    09:00 +28°C° 0 mm 3 mps 713 mmHg 43%
    10:00 +30°C° 0 mm 4 mps 713 mmHg 40%
    11:00 +32°C° 0 mm 4 mps 714 mmHg 37%
    12:00 +33°C° 0 mm 3 mps 713 mmHg 36%
    13:00 +34°C° 0 mm 3 mps 712 mmHg 35%
    14:00 +34°C° 0 mm 2 mps 711 mmHg 34%
    15:00 +32°C° 0 mm 2 mps 711 mmHg 37%
    16:00 +31°C° 0 mm 1 mps 711 mmHg 40%
    17:00 +30°C° 0 mm 1 mps 711 mmHg 43%
    18:00 +30°C° 0 mm 1 mps 711 mmHg 43%
    19:00 +29°C° 0 mm 2 mps 712 mmHg 43%
    20:00 +29°C° 0 mm 2 mps 712 mmHg 43%
    21:00 +28°C° 0 mm 2 mps 712 mmHg 44%
    22:00 +28°C° 0 mm 2 mps 712 mmHg 44%
    23:00 +27°C° 0 mm 2 mps 712 mmHg 45%

    Day after tomorrow, 21 November, Tuesday

    Time Temperature Precipitation Wind Pressure Humidity
    00:00 +27°C° 0 mm 2 mps 712 mmHg 47%
    01:00 +26°C° 0 mm 2 mps 711 mmHg 49%
    02:00 +25°C° 0 mm 2 mps 711 mmHg 51%
    03:00 +25°C° 0 mm 2 mps 711 mmHg 53%
    04:00 +25°C° 0 mm 2 mps 711 mmHg 55%
    05:00 +24°C° 0 mm 2 mps 710 mmHg 56%
    06:00 +25°C° 0 mm 3 mps 711 mmHg 55%
    07:00 +26°C° 0 mm 3 mps 712 mmHg 53%
    08:00 +27°C° 0 mm 4 mps 713 mmHg 52%
    09:00 +29°C° 0 mm 4 mps 713 mmHg 49%
    10:00 +30°C° 0 mm 4 mps 713 mmHg 46%
    11:00 +33°C° 0 mm 5 mps 713 mmHg 43%
    12:00 +33°C° 0 mm 4 mps 712 mmHg 42%
    13:00 +34°C° 0 mm 3 mps 711 mmHg 41%
    14:00 +34°C° 0 mm 2 mps 710 mmHg 40%
    15:00 +32°C° 0 mm 2 mps 710 mmHg 44%
    16:00 +31°C° 0 mm 1 mps 710 mmHg 48%
    17:00 +28°C° 0 mm 0 mps 710 mmHg 52%
    18:00 +30°C° 0 mm 1 mps 711 mmHg 52%
    19:00 +29°C° 0 mm 1 mps 711 mmHg 53%
    20:00 +29°C° 0 mm 1 mps 712 mmHg 53%
    21:00 +28°C° 0 mm 1 mps 712 mmHg 54%
    22:00 +28°C° 0 mm 1 mps 712 mmHg 54%
    23:00 +28°C° 0 mm 1 mps 712 mmHg 54%

    22 November, Wednesday

    Time Temperature Precipitation Wind Pressure Humidity
    00:00 +27°C° 0 mm 1 mps 711 mmHg 55%
    01:00 +27°C° 0 mm 2 mps 711 mmHg 55%
    02:00 +27°C° 0 mm 2 mps 710 mmHg 55%
    03:00 +26°C° 0 mm 2 mps 710 mmHg 56%
    04:00 +26°C° 0 mm 2 mps 710 mmHg 56%
    05:00 +25°C° 0 mm 2 mps 710 mmHg 57%
    06:00 +26°C° 0 mm 3 mps 711 mmHg 57%
    07:00 +27°C° 0 mm 3 mps 712 mmHg 56%
    08:00 +28°C° 0 mm 4 mps 712 mmHg 56%
    09:00 +29°C° 0 mm 4 mps 712 mmHg 53%
    10:00 +32°C° 0 mm 4 mps 712 mmHg 49%
    11:00 +33°C° 0 mm 5 mps 712 mmHg 46%
    12:00 +33°C° 0 mm 4 mps 712 mmHg 45%
    13:00 +34°C° 0 mm 3 mps 711 mmHg 43%
    14:00 +34°C° 0 mm 2 mps 710 mmHg 41%
    15:00 +32°C° 0 mm 2 mps 710 mmHg 45%
    16:00 +32°C° 0 mm 1 mps 710 mmHg 48%
    17:00 +29°C° 0 mm 0 mps 710 mmHg 52%
    18:00 +30°C° 0 mm 1 mps 710 mmHg 53%
    19:00 +29°C° 0 mm 1 mps 711 mmHg 54%
    20:00 +29°C° 0 mm 1 mps 712 mmHg 55%
    21:00 +28°C° 0 mm 1 mps 712 mmHg 56%
    22:00 +28°C° 0 mm 1 mps 711 mmHg 58%
    23:00 +28°C° 0 mm 1 mps 711 mmHg 60%

    23 November, Thursday

    Time Temperature Precipitation Wind Pressure Humidity
    00:00 +27°C° 0 mm 1 mps 711 mmHg 59%
    01:00 +27°C° 0 mm 1 mps 711 mmHg 59%
    02:00 +26°C° 0 mm 2 mps 710 mmHg 59%
    03:00 +26°C° 0 mm 2 mps 710 mmHg 58%
    04:00 +26°C° 0 mm 2 mps 710 mmHg 57%
    05:00 +25°C° 0 mm 2 mps 710 mmHg 56%
    06:00 +26°C° 0 mm 2 mps 711 mmHg 55%
    07:00 +27°C° 0 mm 3 mps 712 mmHg 54%
    08:00 +28°C° 0 mm 3 mps 712 mmHg 53%
    09:00 +29°C° 0 mm 3 mps 712 mmHg 50%
    10:00 +31°C° 0 mm 3 mps 712 mmHg 47%
    11:00 +33°C° 0 mm 3 mps 712 mmHg 45%
    12:00 +32°C° 0 mm 2 mps 712 mmHg 44%
    13:00 +32°C° 0 mm 2 mps 711 mmHg 43%
    14:00 +33°C° 0 mm 1 mps 710 mmHg 42%
    15:00 +32°C° 0 mm 1 mps 710 mmHg 46%
    16:00 +31°C° 0 mm 1 mps 710 mmHg 50%
    17:00 +30°C° 0 mm 1 mps 710 mmHg 54%
    18:00 +29°C° 0 mm 1 mps 711 mmHg 57%
    19:00 +28°C° 0 mm 1 mps 711 mmHg 60%
    20:00 +27°C° 0 mm 1 mps 712 mmHg 62%
    21:00 +27°C° 0 mm 1 mps 712 mmHg 64%
    22:00 +26°C° 0 mm 1 mps 712 mmHg 65%
    23:00 +26°C° 0 mm 1 mps 712 mmHg 66%

    24 November, Friday

    Time Temperature Precipitation Wind Pressure Humidity
    00:00 +25°C° 0 mm 1 mps 711 mmHg 66%
    01:00 +25°C° 0 mm 1 mps 711 mmHg 66%
    02:00 +25°C° 0 mm 1 mps 710 mmHg 66%
    03:00 +25°C° 0 mm 1 mps 710 mmHg 65%
    04:00 +24°C° 0 mm 1 mps 710 mmHg 65%
    05:00 +24°C° 0 mm 1 mps 711 mmHg 64%
    06:00 +25°C° 0 mm 1 mps 711 mmHg 60%
    07:00 +26°C° 0 mm 2 mps 712 mmHg 57%
    08:00 +27°C° 0 mm 2 mps 713 mmHg 53%
    09:00 +29°C° 0 mm 2 mps 713 mmHg 49%
    10:00 +30°C° 0 mm 2 mps 713 mmHg 44%
    11:00 +32°C° 0 mm 2 mps 713 mmHg 40%
    12:00 +32°C° 0 mm 1 mps 712 mmHg 38%
    13:00 +33°C° 0 mm 1 mps 712 mmHg 35%
    14:00 +33°C° 0 mm 1 mps 711 mmHg 33%
    15:00 +32°C° 0 mm 1 mps 711 mmHg 36%
    16:00 +32°C° 0 mm 1 mps 711 mmHg 38%
    17:00 +31°C° 0 mm 2 mps 711 mmHg 41%
    18:00 +30°C° 0 mm 2 mps 711 mmHg 42%
    19:00 +28°C° 0 mm 2 mps 712 mmHg 44%
    20:00 +27°C° 0 mm 2 mps 712 mmHg 45%
    21:00 +27°C° 0 mm 2 mps 712 mmHg 46%
    22:00 +26°C° 0 mm 2 mps 712 mmHg 48%
    23:00 +25°C° 0 mm 2 mps 712 mmHg 49%
    Show more